This demonstration page uses our WeatherBlox Daily Observations layout. Learn more.

Left ArrowRight Arrow

Hourly Observations for December 6, 2020

Temp ( °F °C ) Dew Point ( °F °C ) Humidity (%) Winds ( mph kmh ) Pressure ( in mb ) Visibility ( mi km ) Precip ( " mm )
12:53 am 00:53 Clear 21 -6.1 19 -7.2 92 92 Calm 30.13 1020 10 16 0.00 0.00
1:53 am 01:53 Clear 23 -5 20 -6.7 88 88 Calm 30.11 1020 10 16 0.00 0.00
2:53 am 02:53 Clear 21 -6.1 18 -7.8 88 88 Calm 30.10 1019 10 16 0.00 0.00
3:53 am 03:53 Clear 20 -6.7 17 -8.3 89 89 Calm 30.09 1019 10 16 0.00 0.00
4:53 am 04:53 Clear 18 -7.8 16 -8.9 92 92 Calm 30.09 1019 10 16 0.00 0.00
5:53 am 05:53 Clear 18 -7.8 15 -9.4 88 88 Calm 30.09 1019 10 16 0.00 0.00
6:53 am 06:53 Clear 18 -7.8 15 -9.4 88 88 Calm 30.09 1019 10 16 0.00 0.00
7:53 am 07:53 Sunny 17 -8.3 14 -10 88 88 Calm 30.09 1019 10 16 0.00 0.00
8:50 am 08:50 Mostly Cloudy 21 -6 19 -7 93 93 Calm 30.12 1020 9 14 0.00 0.00
8:53 am 08:53 Mostly Cloudy 23 -5 21 -6.1 92 92 Calm 30.10 1019 9 14 0.00 0.00
9:53 am 09:53 Cloudy 30 -1.1 28 -2.2 92 92 Calm 30.09 1019 9 14 0.00 0.00
10:53 am 10:53 Cloudy 33 0.6 29 -1.7 85 85 ENE 5 7 30.08 1019 10 16 0.00 0.00
11:53 am 11:53 Cloudy 36 2.2 29 -1.7 76 76 E 5 7 30.06 1018 10 16 0.00 0.00
12:53 pm 12:53 Cloudy 37 2.8 29 -1.7 73 73 ENE 7 11 30.04 1017 10 16 0.00 0.00
1:53 pm 13:53 Cloudy 38 3.3 29 -1.7 70 70 NNE 5 7 30.02 1017 10 16 0.00 0.00
2:53 pm 14:53 Cloudy 39 3.9 30 -1.1 70 70 NE 8 13 30.01 1016 10 16 0.00 0.00
3:53 pm 15:53 Cloudy 39 3.9 29 -1.7 67 67 E 7 11 30.00 1016 10 16 0.00 0.00
4:46 pm 16:46 Cloudy 38 3.3 29 -1.7 70 70 ENE 5 7 30.02 1016 10 16 0.00 0.00
4:53 pm 16:53 Cloudy 38 3.3 29 -1.7 70 70 ENE 7 11 30.01 1016 10 16 0.00 0.00
5:53 pm 17:53 Cloudy 37 2.8 29 -1.7 73 73 ENE 6 9 30.02 1017 10 16 0.00 0.00
6:53 pm 18:53 Cloudy 37 2.8 29 -1.7 73 73 NNE 7 11 30.03 1017 10 16 0.00 0.00
7:53 pm 19:53 Cloudy 36 2.2 28 -2.2 73 73 NNE 10 17 30.03 1017 10 16 0.00 0.00
8:23 pm 20:23 Cloudy 35 1.7 27 -2.8 72 72 NNE 8 13 30.03 1017 10 16 0.00 0.00
8:53 pm 20:53 Cloudy 35 1.7 27 -2.8 72 72 NE 7 11 30.00 1016 10 16 0.00 0.00
9:19 pm 21:19 Cloudy 35 1.7 27 -2.8 72 72 E 7 11 29.99 1016 10 16 0.00 0.00
9:50 pm 21:50 Cloudy 34 1 27 -3 75 75 E 7 11 29.97 1015 10 16 0.00 0.00
9:53 pm 21:53 Cloudy 33 0.6 26 -3.3 75 75 E 7 11 29.96 1014 10 16 0.00 0.00
10:19 pm 22:19 Cloudy 34 1.1 27 -2.8 76 76 E 5 7 29.98 1015 10 16 0.00 0.00
10:53 pm 22:53 Cloudy 35 1.7 27 -2.8 72 72 N 6 9 29.98 1015 10 16 0.00 0.00
11:18 pm 23:18 Cloudy 34 1.1 26 -3.3 73 73 N 7 11 30.01 1016 10 16 0.00 0.00
11:53 pm 23:53 Cloudy 34 1.1 26 -3.3 73 73 N 7 11 29.99 1016 10 16 0.00 0.00

Powered by AerisWeather